When you browse on this site, cookies collect data to enhance your experience and personalize the content and advertising you see.
Visit our Privacy Policy to learn more. By continuing to use the site, you agree to this use of cookies and data.
  • In Deutschland
  • Länderverzeichnis
  • Für 7 Tage
  • Wassertemperatur
  • Satellitenkarten
  • Wetterkarte
  • Widgets
  • user-avatar
    Anmelden

    Stündliche Wetter Lezhe

    Heute, 16 Dezember, Sonntag

    Zeit Temperatur Niederschläge Wind Luftdruck Luftfeuchtigkeit
    00:00 +7°C° 1.1 mm 2 m/S 735 mmHg 94%
    01:00 +7°C° 0 mm 3 m/S 735 mmHg 94%
    02:00 +7°C° 0.6 mm 3 m/S 735 mmHg 93%
    03:00 +7°C° 0.6 mm 3 m/S 735 mmHg 92%
    04:00 +5°C° 0.6 mm 3 m/S 735 mmHg 92%
    05:00 +6°C° 0.1 mm 2 m/S 736 mmHg 91%
    06:00 +6°C° 0.1 mm 2 m/S 736 mmHg 90%
    07:00 +5°C° 0.1 mm 2 m/S 736 mmHg 90%
    08:00 +6°C° 0.1 mm 2 m/S 736 mmHg 87%
    09:00 +6°C° 0.1 mm 2 m/S 737 mmHg 83%
    10:00 +6°C° 0.1 mm 2 m/S 737 mmHg 80%
    11:00 +7°C° 0 mm 2 m/S 737 mmHg 78%
    12:00 +7°C° 0 mm 2 m/S 738 mmHg 75%
    13:00 +7°C° 0 mm 2 m/S 738 mmHg 73%
    14:00 +6°C° 0 mm 2 m/S 738 mmHg 75%
    15:00 +6°C° 0 mm 2 m/S 738 mmHg 77%
    16:00 +6°C° 0 mm 1 m/S 738 mmHg 80%
    17:00 +4°C° 0 mm 2 m/S 739 mmHg 80%
    18:00 +4°C° 0 mm 2 m/S 739 mmHg 80%
    19:00 +3°C° 0 mm 2 m/S 739 mmHg 80%
    20:00 +3°C° 0 mm 2 m/S 739 mmHg 77%
    21:00 +3°C° 0 mm 2 m/S 739 mmHg 74%
    22:00 +3°C° 0 mm 2 m/S 740 mmHg 71%
    23:00 +3°C° 0 mm 2 m/S 739 mmHg 68%

    Morgen, 17 Dezember, Montag

    Zeit Temperatur Niederschläge Wind Luftdruck Luftfeuchtigkeit
    00:00 +3°C° 0 mm 2 m/S 739 mmHg 66%
    01:00 +4°C° 0 mm 2 m/S 739 mmHg 63%
    02:00 +4°C° 0 mm 2 m/S 739 mmHg 62%
    03:00 +4°C° 0 mm 2 m/S 738 mmHg 61%
    04:00 +4°C° 0 mm 2 m/S 738 mmHg 60%
    05:00 +4°C° 0 mm 2 m/S 738 mmHg 59%
    06:00 +4°C° 0 mm 2 m/S 738 mmHg 59%
    07:00 +5°C° 0 mm 2 m/S 738 mmHg 59%
    08:00 +5°C° 0.2 mm 2 m/S 737 mmHg 61%
    09:00 +5°C° 0.2 mm 2 m/S 737 mmHg 63%
    10:00 +6°C° 0.2 mm 2 m/S 737 mmHg 66%
    11:00 +6°C° 0.2 mm 2 m/S 737 mmHg 69%
    12:00 +6°C° 0.2 mm 2 m/S 736 mmHg 72%
    13:00 +5°C° 0.2 mm 3 m/S 736 mmHg 75%
    14:00 +5°C° 0.8 mm 3 m/S 736 mmHg 77%
    15:00 +5°C° 0.8 mm 4 m/S 735 mmHg 80%
    16:00 +5°C° 0.8 mm 4 m/S 735 mmHg 82%
    17:00 +4°C° 1.3 mm 4 m/S 735 mmHg 81%
    18:00 +4°C° 1.3 mm 4 m/S 735 mmHg 80%
    19:00 +3°C° 1.3 mm 5 m/S 735 mmHg 78%
    20:00 +2°C° 1.1 mm 5 m/S 736 mmHg 78%
    21:00 +2°C° 1.1 mm 5 m/S 736 mmHg 78%
    22:00 +1°C° 1.1 mm 5 m/S 737 mmHg 77%
    23:00 +1°C° 0.2 mm 6 m/S 737 mmHg 77%

    übermorgen, 18 Dezember, Dienstag

    Zeit Temperatur Niederschläge Wind Luftdruck Luftfeuchtigkeit
    00:00 +1°C° 0.2 mm 6 m/S 737 mmHg 77%
    01:00 +1°C° 0.2 mm 6 m/S 737 mmHg 77%
    02:00 +1°C° 0 mm 6 m/S 737 mmHg 77%
    03:00 +1°C° 0 mm 6 m/S 738 mmHg 77%
    04:00 +1°C° 0 mm 6 m/S 738 mmHg 78%
    05:00 -1°C° 0 mm 6 m/S 738 mmHg 77%
    06:00 -1°C° 0 mm 6 m/S 739 mmHg 77%
    07:00 -1°C° 0 mm 6 m/S 739 mmHg 77%
    08:00 +1°C° 0 mm 6 m/S 740 mmHg 76%
    09:00 +2°C° 0 mm 6 m/S 740 mmHg 75%
    10:00 +3°C° 0 mm 6 m/S 740 mmHg 75%
    11:00 +3°C° 0 mm 6 m/S 740 mmHg 75%
    12:00 +5°C° 0 mm 5 m/S 740 mmHg 75%
    13:00 +5°C° 0 mm 5 m/S 740 mmHg 75%
    14:00 +3°C° 0 mm 5 m/S 740 mmHg 75%
    15:00 +3°C° 0 mm 5 m/S 741 mmHg 76%
    16:00 +2°C° 0 mm 5 m/S 741 mmHg 77%
    17:00 +3°C° 0 mm 4 m/S 742 mmHg 78%
    18:00 +3°C° 0 mm 4 m/S 742 mmHg 78%
    19:00 +1°C° 0 mm 4 m/S 742 mmHg 79%
    20:00 +1°C° 0 mm 4 m/S 743 mmHg 79%
    21:00 +1°C° 0 mm 4 m/S 743 mmHg 80%
    22:00 +1°C° 0 mm 4 m/S 743 mmHg 80%
    23:00 +2°C° 0 mm 3 m/S 743 mmHg 80%

    19 Dezember, Mittwoch

    Zeit Temperatur Niederschläge Wind Luftdruck Luftfeuchtigkeit
    00:00 +1°C° 0 mm 3 m/S 743 mmHg 80%
    01:00 +1°C° 0 mm 3 m/S 743 mmHg 80%
    02:00 +1°C° 0 mm 3 m/S 743 mmHg 79%
    03:00 +1°C° 0 mm 3 m/S 743 mmHg 79%
    04:00 +2°C° 0 mm 2 m/S 743 mmHg 78%
    05:00 +2°C° 0 mm 2 m/S 743 mmHg 77%
    06:00 +3°C° 0 mm 2 m/S 743 mmHg 76%
    07:00 +3°C° 0 mm 2 m/S 743 mmHg 75%
    08:00 +4°C° 0 mm 2 m/S 743 mmHg 73%
    09:00 +7°C° 0 mm 1 m/S 743 mmHg 72%
    10:00 +9°C° 0 mm 1 m/S 743 mmHg 71%
    11:00 +9°C° 0 mm 1 m/S 743 mmHg 70%
    12:00 +10°C° 0 mm 1 m/S 742 mmHg 69%
    13:00 +10°C° 0 mm 1 m/S 742 mmHg 69%
    14:00 +9°C° 0 mm 1 m/S 742 mmHg 72%
    15:00 +8°C° 0 mm 1 m/S 742 mmHg 75%
    16:00 +6°C° 0 mm 1 m/S 742 mmHg 78%
    17:00 +6°C° 0 mm 1 m/S 742 mmHg 77%
    18:00 +5°C° 0 mm 1 m/S 743 mmHg 75%
    19:00 +5°C° 0 mm 1 m/S 743 mmHg 74%
    20:00 +4°C° 0 mm 2 m/S 743 mmHg 71%
    21:00 +4°C° 0 mm 2 m/S 743 mmHg 69%
    22:00 +4°C° 0 mm 2 m/S 744 mmHg 66%
    23:00 +4°C° 0 mm 2 m/S 744 mmHg 64%

    20 Dezember, Donnerstag

    Zeit Temperatur Niederschläge Wind Luftdruck Luftfeuchtigkeit
    00:00 +4°C° 0 mm 2 m/S 743 mmHg 62%
    01:00 +4°C° 0 mm 2 m/S 743 mmHg 60%
    02:00 +4°C° 0 mm 2 m/S 743 mmHg 59%
    03:00 +4°C° 0 mm 2 m/S 743 mmHg 57%
    04:00 +4°C° 0 mm 2 m/S 743 mmHg 56%
    05:00 +4°C° 0 mm 2 m/S 743 mmHg 56%
    06:00 +4°C° 0 mm 2 m/S 743 mmHg 55%
    07:00 +4°C° 0 mm 2 m/S 743 mmHg 54%
    08:00 +6°C° 0 mm 2 m/S 743 mmHg 55%
    09:00 +7°C° 0 mm 2 m/S 743 mmHg 57%
    10:00 +8°C° 0 mm 2 m/S 743 mmHg 58%
    11:00 +9°C° 0 mm 2 m/S 743 mmHg 58%
    12:00 +9°C° 0 mm 2 m/S 742 mmHg 58%
    13:00 +10°C° 0 mm 3 m/S 742 mmHg 58%
    14:00 +9°C° 0 mm 3 m/S 742 mmHg 60%
    15:00 +8°C° 0 mm 3 m/S 741 mmHg 62%
    16:00 +7°C° 0 mm 3 m/S 741 mmHg 64%
    17:00 +7°C° 0 mm 3 m/S 741 mmHg 65%
    18:00 +7°C° 0 mm 3 m/S 741 mmHg 66%
    19:00 +6°C° 0 mm 4 m/S 741 mmHg 67%
    20:00 +6°C° 1 mm 4 m/S 741 mmHg 70%
    21:00 +6°C° 1 mm 4 m/S 741 mmHg 73%
    22:00 +6°C° 1 mm 4 m/S 741 mmHg 77%
    23:00 +6°C° 2.7 mm 4 m/S 741 mmHg 81%

    21 Dezember, Freitag

    Zeit Temperatur Niederschläge Wind Luftdruck Luftfeuchtigkeit
    00:00 +5°C° 2.7 mm 3 m/S 740 mmHg 85%
    01:00 +5°C° 2.7 mm 3 m/S 740 mmHg 90%
    02:00 +5°C° 1 mm 3 m/S 740 mmHg 90%
    03:00 +5°C° 1 mm 3 m/S 740 mmHg 89%
    04:00 +5°C° 1 mm 3 m/S 740 mmHg 89%
    05:00 +5°C° 0.2 mm 3 m/S 740 mmHg 88%
    06:00 +6°C° 0.2 mm 2 m/S 740 mmHg 87%
    07:00 +6°C° 0.2 mm 2 m/S 741 mmHg 86%
    08:00 +7°C° 0.2 mm 2 m/S 741 mmHg 86%
    09:00 +7°C° 0.2 mm 2 m/S 741 mmHg 86%
    10:00 +8°C° 0.2 mm 2 m/S 741 mmHg 86%
    11:00 +9°C° 0.3 mm 2 m/S 741 mmHg 85%
    12:00 +9°C° 0.3 mm 2 m/S 741 mmHg 85%
    13:00 +10°C° 0.3 mm 1 m/S 741 mmHg 84%
    14:00 +10°C° 0.1 mm 1 m/S 741 mmHg 85%
    15:00 +9°C° 0.1 mm 1 m/S 741 mmHg 86%
    16:00 +9°C° 0.1 mm 1 m/S 741 mmHg 87%
    17:00 +8°C° 0 mm 1 m/S 742 mmHg 87%
    18:00 +6°C° 0 mm 2 m/S 742 mmHg 87%
    19:00 +6°C° 0 mm 2 m/S 742 mmHg 87%
    20:00 +6°C° 0 mm 2 m/S 743 mmHg 86%
    21:00 +5°C° 0 mm 2 m/S 743 mmHg 85%
    22:00 +5°C° 0 mm 2 m/S 743 mmHg 84%
    23:00 +5°C° 0 mm 2 m/S 743 mmHg 84%
    Mehr zeigen